Powrót do katalogu

STARLINK-35121

AktywnyŁącznośćVLEO
NORAD 65737·PAYLOAD·🇺🇸 United States

Wystrzelony Sep 25, 2025 z Cape Canaveral Space Force Station

Loading…

Następne Przeloty (najbliższe 24 godziny)

TLE

ŚwieżeSource: CelesTrak SupGP

Epoka: Sep 14, 2026, 21:39 UTC

1 65737C 25216D   26257.90256944 -.00049639  00000+0 -14660-2 0  2573
2 65737  53.1578 171.7010 0001330  91.5516 339.5508 15.34428830    12

Śledź STARLINK-35121 w czasie rzeczywistym z AllMySat

Download on the App Store